Regional Weather Roundup
Issued by NWS

Home | Current Version | Previous Version | Graphics & Text | Print | Product List | Glossary On
Versions: 1 2 3 4 5 6 7 8 9 10 11 12 13 14 15 16 17 18 19 20 21 22 23 24 25 26 27 28 29 30 31 32 33 34 35 36 37 38 39 40 41 42 43 44 45 46 47 48 49 50
000
ASUS43 KDMX 171501
RWRIA

WEATHER ROUNDUP FOR IOWA
NATIONAL WEATHER SERVICE DES MOINES IA
1000 AM CDT TUE OCT 17 2017

NOTE: "FAIR" INDICATES FEW OR NO CLOUDS BELOW 12,000 FEET WITH NO
SIGNIFICANT WEATHER AND/OR OBSTRUCTIONS TO VISIBILITY.

* - THESE STATIONS ARE NOT NWS STATIONS...THUS NOT UNDER NWS
QUALITY CONTROL.  THEY ALSO DO NOT REPORT WEATHER SUCH
AS PRECIPITATION OR FOG.

IAZ001>003-012>014-020>022-031>034-043>046-171600-
   NORTHWEST IOWA

CITY           SKY/WX    TMP DP  RH WIND       PRES   REMARKS
CARROLL *      SUNNY     61  45  55 SW17      30.10R
CHEROKEE *     SUNNY     53  45  73 SW7       30.09S
DENISON *      SUNNY     55  43  62 S8G14     30.11S
LE MARS *      SUNNY     54  45  71 S5G12     30.08R
ORANGE CITY *  SUNNY     52  46  82 S5        30.07S
SHELDON *      SUNNY     52  43  71 VRB5      30.06S
SIOUX CITY     SUNNY     50  44  80 E5        30.09R
SPENCER        SUNNY     55  42  61 SW8       30.07S
STORM LAKE *   SUNNY     55  41  58 SW15      30.08S
$$

IAZ055>058-069>071-079>083-090>094-171600-
   SOUTHWEST IOWA

CITY           SKY/WX    TMP DP  RH WIND       PRES   REMARKS
ATLANTIC *     SUNNY     55  43  62 SW15      30.13S
AUDUBON *      SUNNY     55  45  67 S7        30.13R
CLARINDA *     SUNNY     57  43  58 S13G20    30.17S
COUNCIL BLFS * SUNNY     55  45  67 S14       30.11F
CRESTON *      SUNNY     57  43  58 SW14      30.17S
HARLAN  *      SUNNY     54  45  71 S9G16     30.15S
LAMONI         SUNNY     57  43  59 SW17      30.17S
RED OAK *      SUNNY     57  45  62 S10       30.14S
SHENANDOAH *   SUNNY     59  43  55 SW10G17   30.14F
$$

IAZ047>049-059>061-072>074-084-171600-
   CENTRAL IOWA

CITY           SKY/WX    TMP DP  RH WIND       PRES   REMARKS
AMES           SUNNY     58  43  57 SW17      30.12S
ANKENY *       SUNNY     59  43  55 SW12G17   30.14S
BOONE *        SUNNY     57  43  58 SW12      30.11R
CHARITON *     SUNNY     57  41  54 SW14G22   30.16S
DES MOINES     MOSUNNY   58  42  55 SW14G24   30.13S
GRINNELL*      SUNNY     57  42  57 SW12G18   30.17R
KNOXVILLE *    SUNNY     59  41  51 SW13      30.15R
MARSHALLTOWN   SUNNY     57  43  59 SW16      30.12S
NEWTON *       SUNNY     59  41  51 SW13      30.15S
PELLA *        SUNNY     59  42  54 SW10      30.17S
PERRY *          N/A     61  40  45 SW8       30.12S
$$

IAZ004>006-015-016-023>025-035-036-171600-
   NORTH CENTRAL IOWA

CITY           SKY/WX    TMP DP  RH WIND       PRES   REMARKS
ALGONA *       SUNNY     54  45  71 SW9       30.08S
CLARION *      SUNNY     55  45  67 SW12      30.10R
ESTHERVILLE    SUNNY     55  42  61 SW12      30.06R
FORT DODGE *   SUNNY     55  43  63 SW10      30.10R
MASON CITY     SUNNY     55  42  61 SW12      30.09S
FOREST CITY *    N/A     54  43  66 SW8       30.07F
WEBSTER CITY * SUNNY     57  41  54 SW13      30.09R
IOWA FALLS *     N/A     58  43  59 SW14      30.12R
$$

IAZ007>011-017>019-026>030-037>042-050>054-066-171600-
   NORTHEAST IOWA

CITY           SKY/WX    TMP DP  RH WIND       PRES   REMARKS
CEDAR RAPIDS   SUNNY     59  43  55 SW8       30.16R
CHARLES CITY * SUNNY     55  41  58 SW10      30.10S
CLINTON *      SUNNY     61  42  49 SW15G22   30.19S
DECORAH *      SUNNY     55  43  62 SW8G15    30.08S
DUBUQUE        SUNNY     55  43  63 SW15      30.15R
MONTICELLO *   SUNNY     59  41  51 SW14G21   30.15S
OELWEIN *      SUNNY     55  45  67 SW14G20   30.13S
WATERLOO       SUNNY     58  41  53 SW14      30.11R
$$

IAZ064-065-067-068-078-171600-
   EAST CENTRAL IOWA

CITY           SKY/WX    TMP DP  RH WIND       PRES   REMARKS
DAVENPORT      SUNNY     60  41  49 SW9       30.21S
IOWA CITY      SUNNY     61  42  49 SW12      30.19S
MUSCATINE *    SUNNY     61  41  48 SW9       30.20S
QUAD CITIES    SUNNY     59  41  51 SW12      30.19S
$$

IAZ062-063-075>077-085>089-095>099-171600-
   SOUTHEAST IOWA

CITY           SKY/WX    TMP DP  RH WIND       PRES   REMARKS
BURLINGTON     SUNNY     56  46  69 S10       30.24R
FAIRFIELD *    SUNNY     61  41  48 SW14      30.19S
FORT MADISON * SUNNY     55  43  62 SW10      30.25R
KEOKUK *       SUNNY     57  45  62 SW10G17   30.24R
OSKALOOSA *      N/A     60  42  53 SW13      30.18S
OTTUMWA        SUNNY     59  42  53 SW16G22   30.17F
WASHINGTON *   SUNNY     61  43  51 SW15      30.20S
$$

ABBREVIATIONS USED IN REMARKS
   TC - TEMPERATURES IN CELSIUS
  WCI - WIND CHILL INDEX
   HX - HEAT INDEX
  VSB - VISIBILITY
$$





USA.gov is the U.S. government's official web portal to all federal, state and local government web resources and services.